sat.trackr.live / text

‹ back to catalog

STARLINK-35847

NORAD 66621 · 2025-271E

PAYLOAD ACTIVE UNKNOWN

§ Identity

Operator
Country
US
Launch date
2025-11-23
Launch site
AFWTR
Launch vehicle
Mass (kg)
RCS (m²)

Purposes: comms

External: N2YO · Heavens-Above · Gunter

§ Orbital elements

Epoch: 2026-05-24T17:09:10.024704Z

Period
94.10 min
Inclination
53.1564°
Eccentricity
0.0001058
Mean motion
15.30209088 rev/d
Perigee alt
474.5 km
Apogee alt
475.9 km
Semi-major
6,853.3 km
B*
9.3995e-5
RAAN
146.9938°
Arg perigee
83.4265°
Mean anomaly
276.6856°
Rev number
2,920

§ Raw data

STARLINK-358471 66621U 25271E   26144.71469936  .00002426  00000+0  93995-4 0  99922 66621  53.1564 146.9938 0001058  83.4265 276.6856 15.30209088 29208

JSON: /api/v1/satellites/66621 · /tle

For live sub-satellite position, see the globe view (requires WebGL).

§ Visibility from observer

Set your observer location to see the next 7 days of passes ≥ 10°. The values pass through the URL so the page stays shareable.

No JS? Fill the form by hand. The geolocation button needs JavaScript.